sat.trackr.live / text

‹ back to catalog

ONEWEB-0684

NORAD 56720 · 2023-068L

PAYLOAD ACTIVE UNKNOWN

§ Identity

Operator
Country
UK
Launch date
2023-05-20
Launch site
AFWTR
Launch vehicle
Mass (kg)
RCS (m²)

Purposes: comms

External: N2YO · Heavens-Above · Gunter

§ Orbital elements

Epoch: 2026-05-25T00:25:51.191040Z

Period
109.46 min
Inclination
87.8999°
Eccentricity
0.0000653
Mean motion
13.15547043 rev/d
Perigee alt
1,201.3 km
Apogee alt
1,202.3 km
Semi-major
7,579.9 km
B*
2.5634e-4
RAAN
263.7992°
Arg perigee
73.4736°
Mean anomaly
286.6466°
Rev number
14,620

§ Raw data

ONEWEB-06841 56720U 23068L   26145.01795360  .00000109  00000+0  25634-3 0  99902 56720  87.8999 263.7992 0000653  73.4736 286.6466 13.15547043146208

JSON: /api/v1/satellites/56720 · /tle

For live sub-satellite position, see the globe view (requires WebGL).

§ Visibility from observer

Set your observer location to see the next 7 days of passes ≥ 10°. The values pass through the URL so the page stays shareable.

No JS? Fill the form by hand. The geolocation button needs JavaScript.